TimeCST,TemperatureF,Dew PointF,Humidity,Sea Level PressureIn,VisibilityMPH,Wind Direction,Wind SpeedMPH,Gust SpeedMPH,PrecipitationIn,Events,Conditions,WindDirDegrees,DateUTC
12:52 AM,30.0,19.9,66,29.73,10.0,West,16.1,24.2,N/A,,Clear,270,2014-02-17 06:52:00
1:52 AM,28.0,19.0,69,29.74,10.0,West,16.1,-,N/A,,Clear,260,2014-02-17 07:52:00
2:52 AM,28.0,18.0,66,29.73,10.0,West,18.4,-,N/A,,Clear,270,2014-02-17 08:52:00
3:52 AM,26.1,17.1,69,29.75,10.0,West,15.0,-,N/A,,Clear,270,2014-02-17 09:52:00
4:52 AM,26.1,17.1,69,29.76,10.0,West,17.3,-,N/A,,Clear,280,2014-02-17 10:52:00
5:52 AM,23.0,15.1,72,29.78,10.0,West,15.0,-,N/A,,Clear,270,2014-02-17 11:52:00
6:52 AM,19.9,14.0,78,29.80,10.0,SW,11.5,-,N/A,,Clear,230,2014-02-17 12:52:00
7:52 AM,25.0,16.0,69,29.78,10.0,WSW,9.2,18.4,N/A,,Clear,240,2014-02-17 13:52:00
8:52 AM,24.1,16.0,71,29.77,10.0,SW,10.4,-,N/A,,Clear,230,2014-02-17 14:52:00
9:52 AM,30.0,19.0,64,29.75,10.0,SSW,5.8,-,N/A,,Clear,210,2014-02-17 15:52:00
10:52 AM,33.1,21.0,61,29.71,10.0,SSW,9.2,-,N/A,,Clear,210,2014-02-17 16:52:00
11:52 AM,37.0,21.0,52,29.67,10.0,SW,16.1,-,N/A,,Clear,220,2014-02-17 17:52:00
12:52 PM,39.0,23.0,53,29.64,10.0,SW,13.8,-,N/A,,Clear,220,2014-02-17 18:52:00
1:52 PM,41.0,25.0,53,29.61,10.0,SW,6.9,-,N/A,,Mostly Cloudy,220,2014-02-17 19:52:00
2:52 PM,43.0,26.1,51,29.58,10.0,North,3.5,-,N/A,,Overcast,10,2014-02-17 20:52:00
3:52 PM,45.0,25.0,46,29.53,10.0,SSW,6.9,-,N/A,,Mostly Cloudy,210,2014-02-17 21:52:00
4:52 PM,44.1,26.1,49,29.53,10.0,SW,10.4,-,N/A,,Clear,220,2014-02-17 22:52:00
5:52 PM,41.0,26.1,55,29.53,10.0,SSW,8.1,-,N/A,,Clear,210,2014-02-17 23:52:00
6:52 PM,37.9,26.1,62,29.53,10.0,SW,8.1,-,N/A,,Clear,230,2014-02-18 00:52:00
7:52 PM,37.0,25.0,62,29.52,10.0,SW,9.2,-,N/A,,Clear,220,2014-02-18 01:52:00
8:52 PM,36.0,25.0,64,29.52,10.0,SW,9.2,-,N/A,,Clear,230,2014-02-18 02:52:00
9:52 PM,34.0,26.1,73,29.51,10.0,SW,10.4,-,N/A,,Clear,230,2014-02-18 03:52:00
10:52 PM,39.0,27.0,62,29.51,10.0,WSW,11.5,-,N/A,,Mostly Cloudy,250,2014-02-18 04:52:00
11:52 PM,39.9,30.0,68,29.50,10.0,West,12.7,-,N/A,,Overcast,260,2014-02-18 05:52:00